Simultaneous Nadir Overpasses (SNOs) Predictions

Prediction of SNOs between GOES-16 and LANDSAT-8 Satellite Orbit:

Table of predicted SNOs for the next 14.0 days since TLE Epoch: 3/16/2024
Index Date Time (GOES-16) GOES-16 Lat,Lon LANDSAT-8 Lat,Lon Distance(km) Time Diff (sec)
1 03/17/2024 15:12:23 0.05, -75.21 0.09, -75.40 20.90 80
2 03/19/2024 15:02:50 0.05, -75.23 -0.53, -72.44 316.60 80
3 03/20/2024 03:24:13 -0.05, -75.22 -0.56, -77.63 274.54 80
4 03/22/2024 03:09:21 -0.04, -75.24 0.08, -74.67 64.17 80
5 03/24/2024 02:57:08 -0.04, -75.27 0.73, -71.72 403.89 80
6 03/24/2024 15:18:22 0.04, -75.29 0.36, -76.87 180.28 80
7 03/26/2024 15:08:48 0.04, -75.32 -0.25, -73.91 160.39 80
8 03/27/2024 03:30:12 -0.04, -75.32 -0.83, -79.10 429.79 80
9 03/29/2024 03:17:58 -0.04, -75.36 -0.20, -76.14 88.78 80
